IRIDIUM 106 1 41917U 17003A 26063.23340494 .00000128 00000+0 38802-4 0 9994 2 41917 86.3990 132.4408 0001967 104.8012 255.3402 14.34218450478169 IRIDIUM 103 1 41918U 17003B 26063.22072045 .00000155 00000+0 48118-4 0 9999 2 41918 86.3989 132.3463 0002155 87.0331 273.1112 14.34217513478181 IRIDIUM 109 1 41919U 17003C 26063.22706328 .00000046 00000+0 93177-5 0 9993 2 41919 86.3991 132.4014 0002172 95.1487 264.9957 14.34217847478151 IRIDIUM 102 1 41920U 17003D 26063.26511831 .00000169 00000+0 53383-4 0 9992 2 41920 86.3989 132.3114 0002266 96.9978 263.1475 14.34218540478245 IRIDIUM 105 1 41921U 17003E 26063.51061055 .00000357 00000+0 12003-3 0 9991 2 41921 86.3925 100.6615 0002264 92.7980 267.3475 14.34398950480136 IRIDIUM 104 1 41922U 17003F 26063.27780435 .00000112 00000+0 33095-4 0 9999 2 41922 86.3991 132.3471 0002372 88.6659 271.4809 14.34218326478232 IRIDIUM 114 1 41923U 17003G 26063.28414543 .00000190 00000+0 60941-4 0 9991 2 41923 86.3991 132.3281 0002218 89.8647 270.2803 14.34219011478212 IRIDIUM 108 1 41924U 17003H 26063.52174045 .00000359 00000+0 12112-3 0 9992 2 41924 86.3917 100.5455 0002319 96.9782 263.1678 14.34219417480104 IRIDIUM 112 1 41925U 17003J 26063.27146172 .00000088 00000+0 24491-4 0 9998 2 41925 86.3986 132.1803 0002333 94.2126 265.9336 14.34217971478233 IRIDIUM 111 1 41926U 17003K 26063.25877620 .00000113 00000+0 33426-4 0 9993 2 41926 86.3988 132.2538 0002142 94.4199 265.7242 14.34218099478216 IRIDIUM 113 1 42803U 17039A 26063.30850879 .00000057 00000+0 13364-4 0 9996 2 42803 86.4020 5.9964 0002251 82.1073 278.0378 14.34218057456154 IRIDIUM 123 1 42804U 17039B 26063.41975545 .00000087 00000+0 23950-4 0 9992 2 42804 86.3965 37.4065 0002017 83.6521 276.4904 14.34217789454930 IRIDIUM 120 1 42805U 17039C 26063.37193324 .00000300 00000+0 99883-4 0 9991 2 42805 86.4018 5.7668 0002104 90.5485 269.5952 14.34219042456157 IRIDIUM 115 1 42806U 17039D 26063.35966681 .00000556 00000+0 15942-3 0 9990 2 42806 86.4548 5.8856 0001850 85.3153 274.8259 14.43284706459147 IRIDIUM 118 1 42807U 17039E 26063.45146806 .00000078 00000+0 20738-4 0 9990 2 42807 86.3964 37.3921 0002253 84.9984 275.1469 14.34217480454931 IRIDIUM 117 1 42808U 17039F 26063.40072746 .00000018 00000+0 -56586-6 0 9994 2 42808 86.3961 37.3719 0002032 83.6937 276.4490 14.34217744454956 IRIDIUM 126 1 42809U 17039G 26063.42609829 .00000010 00000+0 -33811-5 0 9992 2 42809 86.3961 37.4111 0002061 82.3340 277.8090 14.34217648454932 IRIDIUM 124 1 42810U 17039H 26063.29374139 .00000583 00000+0 16729-3 0 9993 2 42810 86.4539 334.2292 0002105 84.0452 276.0989 14.43269440459981 IRIDIUM 128 1 42811U 17039J 26063.48660447 .00000042 00000+0 77559-5 0 9995 2 42811 86.3909 68.9227 0002048 95.1451 264.9978 14.34217818454979 IRIDIUM 121 1 42812U 17039K 26063.44512661 -.00000011 00000+0 -10851-4 0 9995 2 42812 86.3962 37.4302 0002101 90.1164 270.0273 14.34217397454811 IRIDIUM 133 1 42955U 17061A 26063.58808652 .00000026 00000+0 23839-5 0 9996 2 42955 86.3911 68.9956 0002142 90.4031 269.7410 14.34217619439782 IRIDIUM 100 1 42956U 17061B 26063.51197480 .00000010 00000+0 -34010-5 0 9997 2 42956 86.3909 68.9486 0002035 90.1306 270.0124 14.34217431439779 IRIDIUM 122 1 42957U 17061C 26063.48025926 .00000101 00000+0 28864-4 0 9998 2 42957 86.3909 68.9616 0002113 87.9810 272.1628 14.34218167439775 IRIDIUM 129 1 42958U 17061D 26063.50563259 .00000080 00000+0 21417-4 0 9991 2 42958 86.3910 69.0170 0002552 87.0712 273.0775 14.34218283439798 IRIDIUM 119 1 42959U 17061E 26063.47391979 .00000024 00000+0 16718-5 0 9993 2 42959 86.3911 69.0255 0002240 85.8726 274.2726 14.34217777439807 IRIDIUM 107 1 42960U 17061F 26063.49294639 .00000055 00000+0 12542-4 0 9996 2 42960 86.3911 69.0383 0001889 86.3732 273.7680 14.34218019439816 IRIDIUM 132 1 42961U 17061G 26063.49928868 .00000092 00000+0 25894-4 0 9990 2 42961 86.3910 69.0157 0002099 90.1542 269.9894 14.34218153439814 IRIDIUM 136 1 42962U 17061H 26063.46123407 .00000003 00000+0 -58171-5 0 9992 2 42962 86.3909 69.0379 0002050 87.0912 273.0518 14.34217636439827 IRIDIUM 139 1 42963U 17061J 26063.46757716 .00000014 00000+0 -19880-5 0 9995 2 42963 86.3912 69.0954 0002083 90.8420 269.3015 14.34217697439831 IRIDIUM 125 1 42964U 17061K 26063.45489081 .00000050 00000+0 10746-4 0 9992 2 42964 86.3913 69.1601 0002010 74.9335 285.2083 14.34217986439845 IRIDIUM 135 1 43070U 17083A 26063.35925459 .00000416 00000+0 14145-3 0 9990 2 43070 86.4018 5.8189 0002174 86.1435 274.0009 14.34218606429120 IRIDIUM 138 1 43071U 17083B 26063.31485148 .00000059 00000+0 14146-4 0 9998 2 43071 86.4031 5.5170 0002360 77.1516 282.9944 14.34218026429100 IRIDIUM 116 1 43072U 17083C 26063.35290681 .00000054 00000+0 12157-4 0 9994 2 43072 86.4023 5.8092 0001987 93.4332 266.7091 14.34217955429146 IRIDIUM 130 1 43073U 17083D 26063.32119346 .00000164 00000+0 51675-4 0 9990 2 43073 86.4021 6.0866 0001915 88.2372 271.9043 14.34217532429083 IRIDIUM 151 1 43074U 17083E 26063.36559153 .00000107 00000+0 31052-4 0 9993 2 43074 86.4014 5.8588 0002128 86.2489 273.8951 14.34218443429113 IRIDIUM 134 1 43075U 17083F 26063.33387810 .00000096 00000+0 27329-4 0 9999 2 43075 86.4021 5.8787 0001981 85.3379 274.8043 14.34218389429074 IRIDIUM 137 1 43076U 17083G 26063.34656468 -.00000016 00000+0 -12824-4 0 9997 2 43076 86.4015 5.9642 0002224 97.1619 262.9830 14.34217504429146 IRIDIUM 141 1 43077U 17083H 26063.34023197 .00000421 00000+0 14314-3 0 9998 2 43077 86.4016 5.8033 0002231 82.9066 277.2383 14.34221216429144 IRIDIUM 153 1 43078U 17083J 26063.29239987 .00000112 00000+0 33033-4 0 9996 2 43078 86.4017 334.3372 0002143 78.2597 281.8840 14.34218440430248 IRIDIUM 131 1 43079U 17083K 26063.32753688 .00000426 00000+0 14502-3 0 9997 2 43079 86.4022 5.9875 0002318 85.1393 275.0068 14.34217850429079 IRIDIUM 144 1 43249U 18030A 26063.22897490 .00000030 00000+0 34921-5 0 9998 2 43249 86.4015 334.2952 0002035 87.0636 273.0792 14.34217605415098 IRIDIUM 149 1 43250U 18030B 26063.23531681 .00000163 00000+0 51136-4 0 9991 2 43250 86.4014 334.2607 0002097 82.1163 278.0271 14.34218458415112 IRIDIUM 157 1 43251U 18030C 26063.25434503 .00000077 00000+0 20393-4 0 9994 2 43251 86.4014 334.3037 0002149 85.3025 274.8416 14.34217941415099 IRIDIUM 140 1 43252U 18030D 26063.27337280 -.00000008 00000+0 -99362-5 0 9990 2 43252 86.4011 334.3085 0001942 83.4818 276.6599 14.34217496415153 IRIDIUM 145 1 43253U 18030E 26063.26068520 .00000303 00000+0 10112-3 0 9998 2 43253 86.4019 334.2864 0001882 92.7355 267.4056 14.34219430415086 IRIDIUM 146 1 43254U 18030F 26063.24165797 .00000372 00000+0 12575-3 0 9992 2 43254 86.4015 334.3068 0002079 88.7281 271.4153 14.34219840415091 IRIDIUM 148 1 43255U 18030G 26063.27971551 .00000269 00000+0 88865-4 0 9990 2 43255 86.4018 334.3326 0002174 85.8918 274.2526 14.34217714415131 IRIDIUM 142 1 43256U 18030H 26063.24800204 .00000013 00000+0 -25909-5 0 9993 2 43256 86.4014 334.2387 0001935 92.0717 268.0701 14.34217675415092 IRIDIUM 150 1 43257U 18030J 26063.28605697 .00000178 00000+0 56453-4 0 9995 2 43257 86.4018 334.3356 0002058 85.6833 274.4598 14.34217726415124 IRIDIUM 143 1 43258U 18030K 26063.26702998 .00000055 00000+0 12519-4 0 9995 2 43258 86.4017 334.4316 0001994 88.7355 271.4069 14.34217952415055 IRIDIUM 161 1 43478U 18047C 26063.27143457 .00000465 00000+0 13218-3 0 9998 2 43478 86.4510 132.3468 0002541 92.3271 267.8221 14.43283856410002 IRIDIUM 152 1 43479U 18047D 26063.23974871 .00000185 00000+0 59056-4 0 9997 2 43479 86.3985 132.2205 0002267 91.9971 268.1484 14.34218327407443 IRIDIUM 147 1 43480U 18047E 26063.24608817 .00000273 00000+0 90454-4 0 9999 2 43480 86.3987 132.2211 0002216 99.5637 260.5810 14.34219890407446 IRIDIUM 110 1 43481U 18047F 26063.25243436 .00000092 00000+0 25657-4 0 9995 2 43481 86.3986 132.3072 0002560 89.6411 270.5078 14.34218097407438 IRIDIUM 162 1 43482U 18047G 26063.26513371 .00000459 00000+0 13031-3 0 9994 2 43482 86.4508 132.2416 0002123 91.9778 268.1666 14.43282729409990 IRIDIUM 160 1 43569U 18061A 26063.54711184 .00000064 00000+0 15790-4 0 9996 2 43569 86.3922 100.5685 0002366 92.1906 267.9561 14.34218146398378 IRIDIUM 166 1 43570U 18061B 26063.50271284 .00000156 00000+0 48543-4 0 9990 2 43570 86.3919 100.5388 0002200 96.2463 263.8984 14.34218611398399 IRIDIUM 158 1 43571U 18061C 26063.47099970 .00000176 00000+0 55846-4 0 9993 2 43571 86.3924 100.5627 0002130 88.8531 271.2909 14.34217898398359 IRIDIUM 165 1 43572U 18061D 26063.49637074 .00000104 00000+0 29929-4 0 9993 2 43572 86.3921 100.5957 0002178 96.5804 263.5640 14.34218111398382 IRIDIUM 155 1 43573U 18061E 26063.45831512 -.00000011 00000+0 -11003-4 0 9996 2 43573 86.3921 100.4856 0001949 93.5037 266.6381 14.34217579398349 IRIDIUM 154 1 43574U 18061F 26063.50906598 .00000330 00000+0 11066-3 0 9990 2 43574 86.3923 100.5934 0002215 98.7976 261.3471 14.34222240398406 IRIDIUM 163 1 43575U 18061G 26063.49002900 .00000033 00000+0 46059-5 0 9995 2 43575 86.3919 100.5200 0002251 91.1094 269.0360 14.34217645398377 IRIDIUM 156 1 43576U 18061H 26063.53442601 .00000019 00000+0 -38088-6 0 9996 2 43576 86.3923 100.5083 0001915 93.8479 266.2935 14.34217727398372 IRIDIUM 164 1 43577U 18061J 26063.51539925 .00000329 00000+0 11058-3 0 9999 2 43577 86.3922 100.5552 0002311 97.6439 262.5020 14.34217512398413 IRIDIUM 159 1 43578U 18061K 26063.48368628 -.00000025 00000+0 -16161-4 0 9992 2 43578 86.3921 100.5072 0002276 92.3332 267.8125 14.34217497398375 IRIDIUM 180 1 43922U 19002A 26063.41341368 .00000039 00000+0 67605-5 0 9999 2 43922 86.3967 37.3708 0002293 85.9622 274.1836 14.34217762373974 IRIDIUM 176 1 43923U 19002B 26063.42074955 .00001579 00000+0 24653-3 0 9990 2 43923 86.6084 37.3258 0002422 88.7981 271.3513 14.72246976383839 IRIDIUM 168 1 43924U 19002C 26063.47683373 .00000404 00000+0 13728-3 0 9993 2 43924 86.3966 37.4185 0002211 86.5754 273.5694 14.34221316373962 IRIDIUM 173 1 43925U 19002D 26063.46415241 -.00000632 00000+0 -23274-3 0 9992 2 43925 86.3957 37.3173 0002026 80.2387 279.9038 14.34214096373943 IRIDIUM 169 1 43926U 19002E 26063.50125552 .00000264 00000+0 79640-4 0 9999 2 43926 86.4166 68.9587 0001547 75.7170 284.4201 14.38610810375170 IRIDIUM 172 1 43927U 19002F 26063.52758008 .00000056 00000+0 13032-4 0 9992 2 43927 86.3964 37.2980 0002373 86.5928 273.5539 14.34217863373966 IRIDIUM 175 1 43928U 19002G 26063.28022147 .00000776 00000+0 11915-3 0 9990 2 43928 86.1544 335.2257 0002259 111.0196 249.1262 14.72246863383801 IRIDIUM 171 1 43929U 19002H 26063.57832080 -.00000032 00000+0 -18572-4 0 9992 2 43929 86.3969 37.5720 0001968 91.5672 268.5749 14.34217219373961 IRIDIUM 170 1 43930U 19002J 26063.42692861 .00001392 00000+0 21680-3 0 9990 2 43930 86.6082 37.3259 0002643 91.2509 268.9011 14.72258957383844 IRIDIUM 167 1 43931U 19002K 26063.43244041 -.00000021 00000+0 -14659-4 0 9994 2 43931 86.3961 37.3597 0001738 90.7179 269.4216 14.34217476373946 IRIDIUM 181 1 56726U 23068S 26063.48840103 .00000465 00000+0 13215-3 0 9999 2 56726 86.4460 100.5758 0002610 97.9601 262.1896 14.43315170147334 IRIDIUM 177 1 56727U 23068T 26063.33727345 .00002171 00000+0 28216-3 0 9999 2 56727 86.1996 18.5624 0002366 80.6925 279.4564 14.80243319150852 IRIDIUM 174 1 56728U 23068U 26063.41457174 .00001511 00000+0 23568-3 0 9991 2 56728 86.6092 37.4681 0002585 83.1939 276.9572 14.72262153150606 IRIDIUM 178 1 56729U 23068V 26063.46158379 .00000811 00000+0 10323-3 0 9999 2 56729 86.6483 69.1262 0002333 98.7731 261.3755 14.80231166150870 IRIDIUM 179 1 56730U 23068W 26063.45621340 .00000770 00000+0 97817-4 0 9991 2 56730 86.6717 77.8044 0002262 93.6045 266.5436 14.80240896150872